Location: Elstree
(51.6403°N, 0.2969°W)
Time: 05:18:52
(UTC+00:00)

Cosmos 1354 Rocket - Pass Details

Date: 24 June 2021
Orbit: 764 x 783 km, 74.0° (Epoch: 27 July)

Event Time Altitude Azimuth Distance (km) Brightness Sun altitude
Rises 21:03:04 0° 337° (NNW) 3,285 9.0 -5.2°
Reaches altitude 10° 21:05:33 10° 342° (NNW) 2,353 7.9 -5.4°
Maximum altitude 21:10:46 50° 58° (ENE) 991 4.6 -5.9°
Drops below altitude 10° 21:15:56 10° 134° (SE) 2,335 5.8 -6.4°
Enters shadow 21:16:27 - 136° (SE) 2,526 6.0 -6.5°
